Location: Unspecified
(0.0000°N, 0.0000°E)
Time: 16:22:02
(UTC+00:00)

Courier 1B Rocket - Pass Details

Date: 20 November 2019
Orbit: 920 x 1202 km, 28.2° (Epoch: 12 December)

Event Time Altitude Azimuth Distance (km) Brightness Sun altitude
Rises 07:41:01 0° 211° (SSW) 3,576 7.9 27.0°
Reaches altitude 10° 07:45:10 10° 185° (S) 2,611 7.6 28.0°
Maximum altitude 07:48:09 14° 156° (SSE) 2,353 7.9 28.7°
Drops below altitude 10° 07:51:08 10° 127° (SE) 2,610 8.7 29.4°
Sets 07:55:16 0° 102° (ESE) 3,573 9.1 30.3°
